Location: Byszew
(52.1813°N, 19.2693°E)
Time: 19:02:18
(UTC+00:00)

IGS 5A - Pass Details

Date: 03 March 2021
Orbit: 585 x 586 km, 97.5° (Epoch: 16 April)

Event Time Altitude Azimuth Distance (km) Brightness Sun altitude
Exits shadow 19:11:26 40° 3° (N) 875 4.4 -25.6°
Drops below altitude 10° 19:14:13 10° 351° (N) 1,924 6.5 -26.0°
Sets 19:16:23 0° 349° (NNW) 2,829 7.4 -26.3°
